Location: Jaite
(41.2884°N, 81.5737°W)
Time: 16:00:37
(UTC+00:00)

EXPRESS MD2 - Pass Details

Date: 18 January 2020
Orbit: 262 x 4042 km, 49.9° (Epoch: 18 February)

Event Time Altitude Azimuth Distance (km) Brightness Sun altitude
Exits shadow 11:06:08 29° 8° (N) 739 3.9 -19.0°
Drops below altitude 10° 11:07:44 10° 41° (NE) 1,243 5.5 -18.7°
Sets 11:09:23 0° 53° (NE) 1,948 6.8 -18.4°
